Location: Newark
(51.8900°N, 2.0780°W)
Time: 03:01:06
(UTC+00:00)

Envisat - Pass Details

Date: 01 December 2019
Orbit: 764 x 766 km, 98.1° (Epoch: 15 December)

Event Time Altitude Azimuth Distance (km) Brightness Sun altitude
Rises 19:53:17 0° 229° (SW) 3,226 6.7 -34.8°
Reaches altitude 10° 19:58:48 10° 278° (W) 2,309 6.3 -35.6°
Maximum altitude 19:58:50 10° 278° (W) 2,309 6.3 -35.6°
Drops below altitude 10° 19:58:56 10° 279° (W) 2,309 6.3 -35.6°
Sets 20:04:25 0° 328° (NNW) 3,244 6.8 -36.5°
